Powrót do katalogu

STARLINK-31422

AktywnyŁącznośćVLEO
NORAD 59354·PAYLOAD·🇺🇸 United States

Wystrzelony Mar 31, 2024 z Cape Canaveral Space Force Station

Loading…

Następne Przeloty (najbliższe 24 godziny)

TLE

ŚwieżeSource: CelesTrak SupGP

Epoka: Sep 14, 2026, 22:20 UTC

1 59354C 24060G   26257.93104167  .00029734  00000+0  10774-2 0  2573
2 59354  43.0019 271.5131 0001409 263.9270 334.7991 15.27550408    12

Śledź STARLINK-31422 w czasie rzeczywistym z AllMySat

Download on the App Store